Tracking 35331 objects as of 14-Sep-2026
HD Live streaming from Space Station
objects crossing your sky now

ONEWEB-0411

Track ONEWEB-0411 now!
10-day predictions
ONEWEB-0411 is classified as:


NORAD ID: 51623
Int'l Code: 2022-012B
Launch date: February 10, 2022
Source: United Kingdom (UK)
Launch site: FRENCH GUIANA (FRGUI)
Your satellite tracking list
Your tracking list is empty




NASA's NSSDC Master Catalog

Two Line Element Set (TLE):
1 51623U 22012B   26257.04616221 -.00000171  00000-0 -52481-3 0  9992
2 51623  87.8896  18.5793 0001381  87.3223 272.8062 13.10369579220922
Source of the keplerian elements: AFSPC